| time (UTC) | temp F | wind direction | speed MPH | gust MPH | rain 1hr in | rain 24hr in | rain mn in | humidity % | barometer mb |
| 20260507023828 | 61 | 178 | 4.0 | 8.0 | 0.00 | 0.00 | 0.00 | 43 | 1012.2 |
| 20260507022324 | 62 | 197 | 4.0 | 7.0 | 0.00 | 0.00 | 0.00 | 43 | 1012.3 |
| 20260507020819 | 62 | 347 | 4.0 | 8.0 | 0.00 | 0.00 | 0.00 | 43 | 1012.5 |
| 20260507015316 | 62 | 261 | 5.0 | 10.0 | 0.00 | 0.00 | 0.00 | 42 | 1012.5 |
| 20260507013812 | 59 | 235 | 5.0 | 7.0 | 0.00 | 0.00 | 0.00 | 45 | 1012.8 |
| 20260507012308 | 60 | 193 | 7.0 | 8.0 | 0.00 | 0.00 | 0.00 | 44 | 1012.8 |
| 20260507010807 | 60 | 180 | 7.0 | 10.0 | 0.00 | 0.00 | 0.00 | 42 | 1012.9 |
| 20260507005305 | 64 | 251 | 5.0 | 8.0 | 0.00 | 0.00 | 0.00 | 41 | 1012.8 |
| 20260507003800 | 62 | 252 | 3.0 | 3.0 | 0.00 | 0.00 | 0.00 | 41 | 1012.6 |
| 20260507002259 | 62 | 194 | 6.0 | 8.0 | 0.00 | 0.00 | 0.00 | 37 | 1012.0 |
| 20260507000756 | 63 | 270 | 2.0 | 2.0 | 0.00 | 0.00 | 0.00 | 39 | 1012.3 |
| 20260506235256 | 62 | 210 | 5.0 | 7.0 | 0.00 | 0.00 | 0.00 | 40 | 1012.4 |
| 20260506233754 | 62 | 172 | 7.0 | 13.0 | 0.00 | 0.00 | 0.00 | 43 | 1012.4 |
| 20260506232253 | 60 | 199 | 6.0 | 9.0 | 0.00 | 0.00 | 0.00 | 51 | 1012.6 |
| 20260506230751 | 59 | 191 | 5.0 | 7.0 | 0.00 | 0.00 | 0.00 | 58 | 1012.7 |
| 20260506225248 | 60 | 192 | 5.0 | 6.0 | 0.00 | 0.00 | 0.00 | 68 | 1012.5 |
| 20260506223743 | 62 | 205 | 7.0 | 9.0 | 0.00 | 0.00 | 0.00 | 63 | 1012.1 |
| 20260506222238 | 61 | 245 | 4.0 | 7.0 | 0.00 | 0.00 | 0.00 | 63 | 1011.7 |
| 20260506220737 | 61 | 219 | 6.0 | 10.0 | 0.00 | 0.00 | 0.00 | 64 | 1011.4 |
| 20260506215236 | 60 | 238 | 4.0 | 5.0 | 0.00 | 0.00 | 0.00 | 65 | 1011.5 |
| 20260506213734 | 60 | 236 | 9.0 | 11.0 | 0.00 | 0.00 | 0.00 | 65 | 1011.5 |
| 20260506212230 | 59 | 236 | 6.0 | 9.0 | 0.00 | 0.00 | 0.00 | 67 | 1011.1 |
| 20260506210725 | 58 | 190 | 6.0 | 10.0 | 0.00 | 0.00 | 0.00 | 68 | 1010.7 |
| 20260506205220 | 57 | 235 | 8.0 | 15.0 | 0.00 | 0.00 | 0.00 | 69 | 1011.0 |
| 20260506203718 | 56 | 209 | 2.0 | 2.0 | 0.00 | 0.00 | 0.00 | 68 | 1010.8 |
| 20260506202214 | 57 | 244 | 3.0 | 5.0 | 0.00 | 0.00 | 0.00 | 68 | 1010.9 |
| 20260506200711 | 57 | 194 | 3.0 | 6.0 | 0.00 | 0.00 | 0.00 | 67 | 1010.9 |
| 20260506195207 | 57 | 210 | 5.0 | 8.0 | 0.00 | 0.00 | 0.00 | 66 | 1010.7 |
| 20260506193704 | 57 | 261 | 2.0 | 2.0 | 0.00 | 0.00 | 0.00 | 65 | 1010.8 |
| 20260506192200 | 57 | 232 | 2.0 | 3.0 | 0.00 | 0.00 | 0.00 | 65 | 1010.7 |
| 20260506190656 | 57 | 293 | 0.0 | 1.0 | 0.00 | 0.00 | 0.00 | 66 | 1010.6 |
| 20260506185152 | 57 | 296 | 1.0 | 2.0 | 0.00 | 0.00 | 0.00 | 64 | 1010.7 |
| 20260506183649 | 57 | 198 | 5.0 | 7.0 | 0.00 | 0.00 | 0.00 | 64 | 1010.5 |
| 20260506182145 | 57 | 228 | 6.0 | 9.0 | 0.00 | 0.00 | 0.00 | 64 | 1010.7 |
| 20260506180643 | 57 | 273 | 6.0 | 8.0 | 0.00 | 0.00 | 0.00 | 64 | 1010.7 |
| 20260506175138 | 57 | 256 | 4.0 | 8.0 | 0.00 | 0.00 | 0.00 | 64 | 1010.9 |
| 20260506173637 | 57 | 207 | 6.0 | 10.0 | 0.00 | 0.00 | 0.00 | 65 | 1010.8 |
| 20260506172133 | 57 | 169 | 8.0 | 13.0 | 0.00 | 0.00 | 0.00 | 64 | 1011.0 |
| 20260506170631 | 56 | 255 | 5.0 | 6.0 | 0.00 | 0.00 | 0.00 | 65 | 1011.0 |
| 20260506165127 | 56 | 300 | 4.0 | 6.0 | 0.00 | 0.00 | 0.00 | 65 | 1011.3 |
| 20260506163623 | 57 | 282 | 0.0 | 1.0 | 0.00 | 0.00 | 0.00 | 65 | 1011.4 |
| 20260506162122 | 56 | 248 | 3.0 | 6.0 | 0.00 | 0.00 | 0.00 | 69 | 1011.7 |
| 20260506160619 | 57 | 287 | 5.0 | 9.0 | 0.00 | 0.00 | 0.00 | 69 | 1011.8 |
| 20260506155116 | 57 | 199 | 3.0 | 5.0 | 0.00 | 0.00 | 0.00 | 71 | 1012.0 |
| 20260506152317 | 56 | 221 | 4.0 | 6.0 | 0.00 | 0.00 | 0.00 | 73 | 1012.0 |
| 20260506150815 | 57 | 299 | 3.0 | 5.0 | 0.00 | 0.00 | 0.00 | 72 | 1012.0 |
| 20260506145310 | 57 | 210 | 5.0 | 10.0 | 0.00 | 0.00 | 0.00 | 71 | 1012.3 |
| 20260506143809 | 57 | 236 | 3.0 | 7.0 | 0.00 | 0.00 | 0.00 | 71 | 1012.4 |
| 20260506142307 | 57 | 271 | 0.0 | 0.0 | 0.00 | 0.00 | 0.00 | 71 | 1012.8 |
| 20260506140807 | 58 | 283 | 3.0 | 3.0 | 0.00 | 0.00 | 0.00 | 72 | 1012.8 |
| 20260506135305 | 58 | 245 | 4.0 | 5.0 | 0.00 | 0.00 | 0.00 | 74 | 1012.8 |
| 20260506133758 | 59 | 202 | 1.0 | 2.0 | 0.00 | 0.00 | 0.00 | 73 | 1013.0 |
| 20260506132255 | 58 | 212 | 3.0 | 3.0 | 0.00 | 0.00 | 0.00 | 75 | 1013.0 |
| 20260506130751 | 57 | 297 | 0.0 | 0.0 | 0.00 | 0.00 | 0.00 | 76 | 1013.1 |
| 20260506125250 | 58 | 288 | 0.0 | 0.0 | 0.00 | 0.00 | 0.00 | 75 | 1013.5 |
| 20260506123748 | 59 | 267 | 2.0 | 2.0 | 0.00 | 0.00 | 0.00 | 73 | 1013.6 |
| 20260506122246 | 58 | 222 | 2.0 | 2.0 | 0.00 | 0.00 | 0.00 | 76 | 1013.6 |
| 20260506120744 | 58 | 224 | 0.0 | 0.0 | 0.00 | 0.00 | 0.00 | 78 | 1013.7 |
| 20260506115243 | 57 | 269 | 0.0 | 0.0 | 0.00 | 0.00 | 0.00 | 80 | 1013.8 |
| 20260506113743 | 57 | 283 | 0.0 | 0.0 | 0.00 | 0.00 | 0.00 | 78 | 1014.1 |
| 20260506112239 | 58 | 278 | 0.0 | 0.0 | 0.00 | 0.00 | 0.00 | 76 | 1014.3 |
| 20260506110737 | 58 | 281 | 0.0 | 0.0 | 0.00 | 0.00 | 0.00 | 83 | 1014.1 |
| 20260506105234 | 59 | 267 | 1.0 | 2.0 | 0.00 | 0.00 | 0.00 | 82 | 1014.1 |
| 20260506103732 | 59 | 281 | 1.0 | 1.0 | 0.00 | 0.00 | 0.00 | 85 | 1014.3 |
| 20260506102230 | 59 | 287 | 0.0 | 0.0 | 0.00 | 0.00 | 0.00 | 84 | 1014.2 |
| 20260506100727 | 58 | 287 | 0.0 | 0.0 | 0.00 | 0.00 | 0.00 | 86 | 1014.4 |
| 20260506095226 | 59 | 296 | 0.0 | 0.0 | 0.00 | 0.00 | 0.00 | 84 | 1014.5 |
| 20260506093725 | 59 | 286 | 0.0 | 0.0 | 0.00 | 0.00 | 0.00 | 86 | 1014.5 |
| 20260506092223 | 60 | 296 | 0.0 | 0.0 | 0.00 | 0.00 | 0.00 | 83 | 1014.4 |
| 20260506090721 | 61 | 270 | 0.0 | 0.0 | 0.00 | 0.00 | 0.00 | 82 | 1014.7 |
| 20260506085217 | 60 | 259 | 0.0 | 0.0 | 0.00 | 0.00 | 0.00 | 86 | 1014.3 |
| 20260506083713 | 61 | 294 | 0.0 | 0.0 | 0.00 | 0.00 | 0.00 | 85 | 1014.4 |
| 20260506082208 | 61 | 302 | 0.0 | 0.0 | 0.00 | 0.00 | 0.00 | 84 | 1014.3 |
| 20260506080707 | 62 | 291 | 2.0 | 2.0 | 0.00 | 0.00 | 0.00 | 84 | 1014.0 |
| 20260506072159 | 63 | 316 | 1.0 | 3.0 | 0.00 | 0.00 | 0.00 | 84 | 1013.9 |
| 20260506070657 | 63 | 10 | 0.0 | 0.0 | 0.00 | 0.00 | 0.00 | 83 | 1014.2 |
| 20260506062148 | 67 | 309 | 2.0 | 3.0 | 0.00 | 0.00 | 0.00 | 75 | 1014.2 |
| 20260506060646 | 69 | 299 | 2.0 | 2.0 | 0.00 | 0.00 | 0.00 | 72 | 1014.6 |
| 20260506050637 | 71 | 88 | 2.0 | 5.0 | 0.00 | 0.00 | 0.00 | 66 | 1014.9 |
| 20260506045132 | 71 | 91 | 5.0 | 6.0 | 0.00 | 0.00 | 0.00 | 67 | 1015.2 |
| 20260506043630 | 72 | 302 | 1.0 | 1.0 | 0.00 | 0.00 | 0.00 | 64 | 1015.3 |
| 20260506042130 | 72 | 286 | 1.0 | 1.0 | 0.00 | 0.00 | 0.00 | 63 | 1015.3 |
| 20260506040629 | 73 | 286 | 2.0 | 2.0 | 0.00 | 0.00 | 0.00 | 61 | 1015.5 |
| 20260506035125 | 74 | 296 | 1.0 | 1.0 | 0.00 | 0.00 | 0.00 | 57 | 1015.9 |
| 20260506033622 | 75 | 296 | 0.0 | 1.0 | 0.00 | 0.00 | 0.00 | 57 | 1016.1 |
| 20260506032119 | 74 | 148 | 3.0 | 3.0 | 0.00 | 0.00 | 0.00 | 57 | 1016.4 |
| 20260506030618 | 73 | 26 | 2.0 | 5.0 | 0.00 | 0.00 | 0.00 | 61 | 1016.6 |
| 20260506025113 | 74 | 294 | 1.0 | 1.0 | 0.00 | 0.00 | 0.00 | 58 | 1016.8 |